sat.trackr.live / text

‹ back to catalog

STARLINK-35737

NORAD 66219 · 2025-244P

PAYLOAD ACTIVE UNKNOWN

§ Identity

Operator
Country
US
Launch date
2025-10-28
Launch site
AFWTR
Launch vehicle
Mass (kg)
RCS (m²)

Purposes: comms

External: N2YO · Heavens-Above · Gunter

§ Orbital elements

Epoch: 2026-05-24T15:57:24.788736Z

Period
94.11 min
Inclination
53.1588°
Eccentricity
0.0001293
Mean motion
15.30197910 rev/d
Perigee alt
474.3 km
Apogee alt
476.1 km
Semi-major
6,853.4 km
B*
8.9882e-4
RAAN
236.8729°
Arg perigee
80.3049°
Mean anomaly
279.8098°
Rev number
3,329

§ Raw data

STARLINK-357371 66219U 25244P   26144.66487024  .00026354  00000+0  89882-3 0  99922 66219  53.1588 236.8729 0001293  80.3049 279.8098 15.30197910 33298

JSON: /api/v1/satellites/66219 · /tle

For live sub-satellite position, see the globe view (requires WebGL).

§ Visibility from observer

Set your observer location to see the next 7 days of passes ≥ 10°. The values pass through the URL so the page stays shareable.

No JS? Fill the form by hand. The geolocation button needs JavaScript.